Weather History for Brownsville, TX

Change the Weather History Date:

Wednesday, November 21, 2012

  Actual Average Record
Temperature  
Mean Temperature 71 °F 68 °F  
Max Temperature 83 °F 78 °F 89 °F (1900)
Min Temperature 59 °F 58 °F 38 °F (1906)
Degree Days  
Heating Degree Days 0 2  
Month to date heating degree days 0 26  
Since 1 July heating degree days 2 30  
Cooling Degree Days 6 5  
Month to date cooling degree days 178 141  
Year to date cooling degree days 4611 3906  
Growing Degree Days 20 (Base 50)    
Moisture  
Dew Point 60 °F    
Average Humidity 72    
Maximum Humidity 100    
Minimum Humidity 43    
Precipitation  
Precipitation 0.00 in 0.05 in 3.52 in (1957)
Month to date precipitation 0.10 1.39  
Year to date precipitation 21.02 25.86  
Sea Level Pressure  
Sea Level Pressure 30.18 in    
Wind  
Wind Speed 6 mph (ENE)    
Max Wind Speed 17 mph    
Max Gust Speed 22 mph    
Visibility 9 miles    
Events      
T = Trace of Precipitation, MM = Missing Value Source: NWS Daily Summary

Daily Weather History Graph

Daily Weather History Graph

Search for Another Location

Airport:

Trip Planner

Search our weather history database for the weather conditions in past years. The results will help you decide how hot, cold, wet, or windy it might be!

Date:

Astronomy

Nov. 21, 2012 Rise Set
Actual Time 6:52 AM CST 5:38 PM CST
Civil Twilight 6:27 AM CST 6:03 PM CST
Nautical Twilight 5:59 AM CST 6:31 PM CST
Astronomical Twilight 5:32 AM CST 6:59 PM CST
Moon 1:23 PM CST (11/21) 12:48 AM CST (11/21)
Length of Visible Light 11h 35m
Length of Day
10h 46m
First Quarter, 62% of the Moon is Illuminated
Nov 21
First Quarter
Nov 28
Full
Dec 6
Last Quarter
Dec 13
New
Dec 19
First Quarter

Hourly Weather History & Observations

Time (CST) Temp. Heat Index Dew Point Humidity Pressure Visibility Wind Dir Wind Speed Gust Speed Precip Events Conditions
12:53 AM 66.0 °F - 62.1 °F 87% 30.17 in 10.0 mi ENE 3.5 mph - N/A   Clear
1:53 AM 64.9 °F - 62.1 °F 90% 30.16 in 10.0 mi Calm Calm - N/A   Clear
2:53 AM 62.1 °F - 60.1 °F 93% 30.16 in 10.0 mi Calm Calm - N/A   Clear
3:53 AM 62.1 °F - 60.1 °F 93% 30.16 in 10.0 mi Calm Calm - N/A   Clear
4:53 AM 62.1 °F - 60.1 °F 93% 30.16 in 10.0 mi NNW 3.5 mph - N/A   Clear
5:53 AM 61.0 °F - 60.1 °F 97% 30.17 in 7.0 mi NNW 3.5 mph - N/A   Clear
6:53 AM 59.0 °F - 59.0 °F 100% 30.19 in 5.0 mi NNW 3.5 mph - N/A   Clear
7:53 AM 64.0 °F - 63.0 °F 96% 30.21 in 5.0 mi Calm Calm - N/A   Clear
8:53 AM 71.1 °F - 66.0 °F 84% 30.22 in 10.0 mi NNE 4.6 mph - N/A   Clear
9:53 AM 75.9 °F - 62.1 °F 62% 30.23 in 10.0 mi East 9.2 mph - N/A   Partly Cloudy
10:53 AM 80.1 °F 81.2 °F 62.1 °F 54% 30.22 in 10.0 mi ENE 8.1 mph - N/A   Overcast
11:53 AM 81.0 °F 81.1 °F 57.9 °F 45% 30.20 in 10.0 mi East 11.5 mph - N/A   Partly Cloudy
12:53 PM 80.1 °F 80.6 °F 57.9 °F 47% 30.18 in 10.0 mi East 10.4 mph - N/A   Clear
1:53 PM 82.9 °F 82.6 °F 57.9 °F 42% 30.15 in 10.0 mi NE 12.7 mph - N/A   Clear
2:53 PM 78.1 °F - 59.0 °F 52% 30.14 in 10.0 mi East 17.3 mph 21.9 mph N/A   Partly Cloudy
3:53 PM 77.0 °F - 59.0 °F 54% 30.14 in 10.0 mi East 12.7 mph - N/A   Clear
4:53 PM 75.9 °F - 59.0 °F 56% 30.14 in 10.0 mi East 10.4 mph - N/A   Clear
5:53 PM 73.0 °F - 60.1 °F 64% 30.16 in 10.0 mi ENE 4.6 mph - N/A   Clear
6:53 PM 71.1 °F - 60.1 °F 68% 30.17 in 10.0 mi ENE 4.6 mph - N/A   Clear
7:53 PM 69.1 °F - 60.1 °F 73% 30.18 in 10.0 mi East 3.5 mph - N/A   Clear
8:53 PM 69.1 °F - 61.0 °F 75% 30.19 in 10.0 mi East 3.5 mph - N/A   Clear
9:53 PM 68.0 °F - 60.1 °F 76% 30.19 in 10.0 mi East 4.6 mph - N/A   Clear
10:53 PM 66.0 °F - 59.0 °F 78% 30.19 in 10.0 mi East 4.6 mph - N/A   Clear
11:53 PM 64.0 °F - 59.0 °F 84% 30.17 in 10.0 mi Calm Calm - N/A   Clear